User: anonymous   Login
Location: Franzen
(48.6167°N, 15.3833°E)
Time: 20:43:36
(UTC+00:00)
Language:

Cosmos 968 Rocket - Orbit

View from above orbital plane
View from above orbital plane
View from above satellite
View from above satellite

Ground track
Ground track

The orbit data is extracted from the following two-line orbital elements,

1 10521U 77119B   21172.42626187  .00000017  00000-0  13398-4 0  9999
2 10521  74.0286  74.9713 0019957  90.6207 269.7235 14.40824356283277
Epoch (UTC): 21 June 2021 10:13:49
Eccentricity: 0.0019957
inclination: 74.0286°
perigee height: 741 km
apogee height: 770 km
right ascension of ascending node: 74.9713°
argument of perigee: 90.6207°
revolutions per day: 14.40824356
mean anomaly at epoch: 269.7235°
orbit number at epoch: 28327

The dashed part of the orbit path shows where the satellite is in the earth's shadow,  

DLR